Location: Unspecified
(0.0000°N, 0.0000°E)
Time: 12:19:21
(UTC+00:00)

SRMSAT - Pass Details

Date: 11 December 2017
Orbit: 849 x 866 km, 20.0° (Epoch: 21 January)

Event Time Altitude Azimuth Distance (km) Brightness Sun altitude
Exits shadow 04:24:33 31° 257° (WSW) 1,473 ? -20.3°
Maximum altitude 04:27:35 77° 339° (NNW) 881 ? -19.6°
Drops below altitude 10° 04:33:35 10° 64° (ENE) 2,489 ? -18.3°
Sets 04:36:09 0° 66° (ENE) 3,426 ? -17.7°
